Goodland, KS

2:41 PM MDT on April 25, 2017 (GMT -0600)
Renner-Goodland Municipal

Weather History for KGLD - December, 2013

Change the Weather History Date:

Monday, December 30, 2013

  Actual Average Record
Temperature  
Mean Temperature 35 °F 29 °F  
Max Temperature 49 °F 42 °F 71 °F (1921)
Min Temperature 20 °F 17 °F -13 °F (1990)
Degree Days  
Heating Degree Days 30 36  
Month to date heating degree days 1073 1056  
Since 1 July heating degree days 2346 2375  
Cooling Degree Days 0 0  
Month to date cooling degree days 0 0  
Year to date cooling degree days 1181 941  
Moisture  
Dew Point 15 °F    
Average Humidity 50    
Maximum Humidity 74    
Minimum Humidity 26    
Precipitation  
Precipitation 0.00 in 0.02 in 0.16 in (1973)
Month to date precipitation 0.05 0.45  
Year to date precipitation 16.74 19.65  
Snow  
Snow 0.00 in 0.20 in - ()
Month to date snowfall 2.5 5.3  
Since 1 July snowfall 6.8 12.5  
Snow Depth 0.00 in    
Sea Level Pressure  
Sea Level Pressure 30.20 in    
Wind  
Wind Speed 15 mph (WNW)    
Max Wind Speed 36 mph    
Max Gust Speed 42 mph    
Visibility 10 miles    
Events      
T = Trace of Precipitation, MM = Missing Value Source: NWS Daily Summary

Daily Weather History Graph

Daily Weather History Graph

Search for Another Location

Airport or City:

Trip Planner

Search our weather history database for the weather conditions in past years. The results will help you decide how hot, cold, wet, or windy it might be!

Date:

Astronomy

Dec. 30, 2013 Rise Set
Actual Time 7:06 AM MST 4:32 PM MST
Civil Twilight 6:36 AM MST 5:02 PM MST
Nautical Twilight 6:02 AM MST 5:36 PM MST
Astronomical Twilight 5:30 AM MST 6:09 PM MST
Moon 4:58 AM MST (12/30) 3:07 PM MST (12/30)
Length of Visible Light 10h 26m
Length of Day
9h 26m
Waning Crescent, 4% of the Moon is Illuminated
Dec 30
Waning Crescent
Jan 1
New
Jan 7
First Quarter
Jan 15
Full
Jan 23
Last Quarter

Hourly Weather History & Observations

Time (MST) Temp. Windchill Dew Point Humidity Pressure Visibility Wind Dir Wind Speed Gust Speed Precip Events Conditions
12:53 AM 24.1 °F 15.2 °F 14.0 °F 65% 30.08 in 10.0 mi WSW 8.1 mph - N/A   Overcast
1:53 AM 25.0 °F 14.8 °F 14.0 °F 63% 30.07 in 10.0 mi WSW 10.4 mph - N/A   Overcast
2:53 AM 25.0 °F 15.5 °F 15.1 °F 66% 30.07 in 10.0 mi WSW 9.2 mph - N/A   Overcast
3:53 AM 26.1 °F 15.0 °F 15.1 °F 63% 30.06 in 10.0 mi West 12.7 mph - N/A   Scattered Clouds
4:53 AM 27.0 °F 16.7 °F 15.1 °F 61% 30.10 in 10.0 mi WNW 11.5 mph - N/A   Clear
5:53 AM 21.9 °F 11.7 °F 14.0 °F 72% 30.15 in 10.0 mi NW 9.2 mph - N/A   Clear
6:53 AM 28.0 °F 16.5 °F 16.0 °F 61% 30.15 in 10.0 mi NW 15.0 mph - N/A   Clear
7:53 AM 27.0 °F 15.2 °F 15.1 °F 61% 30.20 in 10.0 mi WNW 15.0 mph - N/A   Clear
8:53 AM 37.0 °F 28.1 °F 17.1 °F 44% 30.21 in 10.0 mi NW 15.0 mph - N/A   Clear
9:53 AM 43.0 °F 33.1 °F 17.1 °F 35% 30.22 in 10.0 mi NNW 26.5 mph 35.7 mph N/A   Clear
10:53 AM 46.0 °F 36.9 °F 19.9 °F 35% 30.22 in 10.0 mi NNW 28.8 mph 38.0 mph N/A   Clear
11:53 AM 48.0 °F - 19.0 °F 32% 30.19 in 10.0 mi NNW 31.1 mph 38.0 mph N/A   Clear
12:53 PM 48.0 °F - 19.9 °F 33% 30.19 in 10.0 mi NNW 26.5 mph 34.5 mph N/A   Clear
1:53 PM 48.9 °F - 17.1 °F 28% 30.20 in 10.0 mi NNW 23.0 mph 34.5 mph N/A   Clear
2:53 PM 48.0 °F - 16.0 °F 28% 30.21 in 10.0 mi North 19.6 mph 27.6 mph N/A   Clear
3:53 PM 45.0 °F 38.5 °F 16.0 °F 31% 30.23 in 10.0 mi NNW 13.8 mph - N/A   Clear
4:53 PM 30.9 °F 24.3 °F 12.9 °F 47% 30.27 in 10.0 mi NNW 6.9 mph - N/A   Clear
5:53 PM 27.0 °F 18.7 °F 12.0 °F 53% 30.29 in 10.0 mi North 8.1 mph - N/A   Clear
6:53 PM 24.1 °F 17.0 °F 12.0 °F 60% 30.31 in 10.0 mi SW 5.8 mph - N/A   Clear
7:53 PM 24.1 °F 16.0 °F 12.0 °F 60% 30.31 in 10.0 mi SSW 6.9 mph - N/A   Clear
8:53 PM 28.0 °F 19.3 °F 12.9 °F 53% 30.28 in 10.0 mi SSW 9.2 mph - N/A   Clear
9:53 PM 32.0 °F 23.6 °F 15.1 °F 50% 30.25 in 10.0 mi SSW 10.4 mph - N/A   Clear
10:53 PM 34.0 °F 24.6 °F 15.1 °F 46% 30.23 in 10.0 mi SSW 13.8 mph - N/A   Clear
11:53 PM 33.1 °F 22.2 °F 14.0 °F 46% 30.19 in 10.0 mi SSW 17.3 mph - N/A   Clear